Location: Bukit Nyuki
(2.5885°N, 113.7476°E)
Time: 05:34:30
(UTC+00:00)

Cosmos 2058 - Pass Details

Date: 18 May 2021
Orbit: 561 x 583 km, 82.5° (Epoch: 22 June)

Event Time Altitude Azimuth Distance (km) Brightness Sun altitude
Rises 21:07:36 0° 180° (S) 2,802 6.2 -16.4°
Reaches altitude 10° 21:09:49 10° 177° (S) 1,900 5.4 -15.9°
Maximum altitude 21:13:59 69° 94° (E) 623 3.2 -14.9°
Drops below altitude 10° 21:18:08 10° 10° (N) 1,887 6.0 -14.0°
Sets 21:20:19 0° 8° (N) 2,780 6.8 -13.5°
